Weather in Komsomolskiy

Russia / Kirov Oblast     58°10′44″N   48°00′19″E
В апреле 2022 года жителям России запретили посещать сайт meteo.paraplan.net по решению Генеральной прокуратуры. Аудитория сайта уменьшилась в 10 раз. Владельцы сайта не видят смысла в поддержке погодного сервера в таких условиях. Сайт будет закрыт в октябре.
temp.,
°C
wind,
m/s
gust,
m/s
humid.,
%
clouds,
%
prec.,
mm/h
press.,
hPa
HPBL,
m
3 october, mon
mon300:00+10ssw259899 0.0 1010127
03:00+12sse239975 0.0 1010124
06:00+12se2799100 0.0 1010279
09:00+14sse4995100 0.0 1011453
12:00+16s41087100 0.4 1012693
15:00+16sse51272100 0.4 1012743
18:00+14sse51469100 0.0 1014661
21:00+13s61562100 0.0 1015752
4 october, tue
tue400:00+12s51463100 0.0 1016667
03:00+11s5126599 0.0 1018663
06:00+11s4107799 0.0 1019553
09:00+12s4875100 0.0 1021625
12:00+12sse4874100 0.0 1021654
15:00+12sse4969100 0.0 1022600
18:00+11se3979100 0.0 1022355
21:00+9se31081100 0.0 1022346
5 october, wed
wed500:00+9sse41366100 0.0 1022537
03:00+9sse41095100 1.1 1021625
06:00+9sse41092100 0.4 1020641
09:00+9sse41181100 0.4 1020570
12:00+10sse41077100 0.0 1019695
15:00+12sse5973100 0.0 1017890
18:00+9sse51185100 0.8 1017657
21:00+7sse41087100 2.4 1016533
6 october, thu
thu600:00+7se4993100 0.0 1014460
03:00+8se3795100 0.1 1012484
06:00+7se3798100 1.7 1011442
09:00+8s3693100 2.8 1010423
12:00+7s379298 0.1 1011459
15:00+7s2495100 0.3 1011310
18:00+7sw1198100 0.0 101274
21:00+7wsw2597100 0.0 1011194
7 october, fri
fri700:00+7wsw389550 0.1 1011401
03:00+4sw389695 0.1 1010232
06:00+4ssw3994100 0.8 1008331
09:00+6sw41097100 2.9 1008571
12:00+9w4108499 0.0 1008981
15:00+10wsw51082100 0.2 1008999
18:00+9w61282100 0.4 10081154
21:00+8w61286100 0.5 10091119